Wind_Speed
101 103 102 102 101 95 89 83 78 75 70 67 63 60 59 54 51 47 47 43 40 38 35 32 33 34 36 40 42 47 51 57 60 64 62 55 54 59 64 65 69 67 67 75
97 95 94 89 88 82 80 77 72 66 65 61 57 55 52 46 41 42 39 35 33 33 32 30 30 32 35 38 41 45 46 50 54 56 53 55 54 57 62 70 64 61 60 63
84 80 80 78 76 76 76 71 64 62 58 56 54 50 45 38 38 39 35 32 30 30 30 30 32 35 38 40 40 46 46 46 50 56 56 57 59 63 69 70 61 59 58 58
72 72 69 72 72 72 68 64 60 57 57 54 48 42 38 35 36 35 34 31 29 29 28 29 34 37 42 40 48 47 43 41 44 47 47 54 59 60 61 60 58 55 56 56
63 64 66 69 67 65 61 60 57 55 52 48 44 40 35 33 33 34 32 30 28 28 29 31 36 38 42 44 50 53 49 50 49 54 58 57 59 58 58 58 59 59 57 63
59 61 63 62 61 59 57 56 53 50 45 43 40 37 33 31 30 31 30 30 28 28 28 31 37 42 45 48 46 50 54 58 56 53 55 55 54 56 60 62 59 59 60 58
57 59 58 56 57 56 55 52 48 43 41 38 35 32 30 28 30 30 28 32 29 27 28 31 38 47 47 52 51 52 57 55 57 57 58 62 60 62 63 60 61 60 59 59
56 55 52 51 50 50 51 48 42 39 36 34 32 30 27 27 29 29 30 33 30 27 30 37 44 47 49 51 56 55 57 58 59 61 60 61 65 66 61 60 63 64 63 63
55 52 46 48 48 48 46 42 38 35 32 31 28 27 26 26 28 30 30 32 32 33 33 36 44 47 52 54 58 58 59 60 60 59 63 66 65 66 67 63 59 61 62 61
49 45 41 47 47 43 39 37 35 31 28 28 27 25 26 26 27 29 30 31 33 35 37 37 42 51 49 57 54 60 62 63 62 59 56 60 63 62 59 58 58 63 62 54
44 41 41 45 42 38 35 33 30 27 26 25 25 25 27 28 27 28 31 32 32 33 36 42 43 53 55 55 59 62 59 56 57 55 56 54 55 54 52 50 52 54 60 57
43 38 40 41 39 37 34 31 29 26 25 25 24 26 27 27 27 28 28 30 31 34 38 41 46 49 53 60 62 60 55 54 53 52 53 53 54 55 55 56 55 56 58 61
40 39 40 40 41 36 34 31 29 27 26 26 25 25 26 27 27 27 29 31 32 33 35 37 40 43 47 49 51 53 57 55 55 55 52 52 54 53 51 54 59 59 62 64
40 42 41 40 39 35 33 31 29 28 27 26 25 25 26 27 28 28 29 30 31 32 34 36 37 39 39 41 44 46 45 47 49 51 52 51 50 49 48 51 55 60 60 63
41 42 42 41 38 35 32 32 30 29 29 28 26 25 27 27 28 30 30 31 31 31 32 32 33 35 36 38 39 40 40 40 41 43 44 44 45 44 44 45 47 49 51 57
43 43 42 41 37 35 33 32 31 29 29 29 28 27 28 29 30 30 31 31 31 31 31 31 32 33 35 36 36 37 38 38 38 39 39 40 39 39 39 39 40 43 46 49
46 44 40 40 38 35 34 32 32 30 30 30 29 28 27 30 31 31 32 32 32 31 30 30 31 32 34 34 35 34 34 35 36 37 37 38 37 37 36 37 38 38 39 41
46 44 39 39 39 35 33 32 31 32 31 30 30 31 31 31 33 31 30 31 32 33 32 31 30 31 31 32 34 34 34 34 34 34 34 35 34 34 34 35 35 37 39 41
40 39 37 36 35 31 30 30 30 30 30 30 30 31 32 32 33 32 32 31 31 32 33 33 33 34 34 33 34 33 33 34 34 34 34 34 33 33 32 32 33 35 37 39
38 35 32 30 29 26 24 26 27 28 29 30 31 32 34 34 35 34 34 35 34 34 34 34 34 35 36 36 36 35 34 35 35 35 34 34 34 33 33 32 32 32 34 35
39 33 29 27 24 22 22 23 24 27 29 31 32 33 35 37 38 38 39 38 38 38 37 36 36 36 37 38 39 39 38 36 36 37 36 36 35 34 33 32 32 33 33 34
31 25 24 25 23 21 22 23 24 27 30 32 34 36 38 39 41 42 41 40 39 39 39 40 40 40 40 40 40 40 41 40 39 38 38 38 37 36 35 34 33 33 33 33
25 23 22 21 21 22 23 24 26 28 30 32 34 36 38 39 40 41 42 43 44 43 42 42 42 42 42 43 43 43 44 43 42 41 40 39 38 38 37 36 36 35 34 34
23 22 22 22 22 24 25 27 29 31 33 35 37 39 41 43 44 44 43 43 42 42 42 43 43 43 43 43 43 43 44 44 44 42 42 41 41 40 39 39 38 37 36 35
23 23 24 25 26 27 28 30 32 34 36 38 41 42 42 42 41 40 41 41 41 41 41 40 40 40 41 41 42 42 43 42 42 42 42 42 41 40 40 40 40 40 38 38
25 26 25 26 27 29 31 34 36 38 40 42 43 43 42 40 40 40 39 39 38 38 37 38 39 39 39 39 39 39 40 40 41 42 42 43 43 43 42 42 41 41 41 40
25 26 27 28 30 32 35 36 38 40 43 44 43 42 39 38 39 38 38 38 37 36 34 34 35 36 37 38 38 38 40 40 41 41 42 43 44 43 42 42 42 42 42 43
Wind_Direction
279 282 285 287 289 289 290 289 291 293 293 291 289 288 285 284 282 277 271 268 267 264 261 255 249 247 245 236 223 215 217 221 221 222 227 234 231 232 236 241 242 237 235 235
283 284 285 286 288 289 290 292 293 293 292 291 292 291 289 285 281 275 272 270 264 260 257 251 247 246 242 237 225 209 211 219 224 228 234 234 232 235 239 241 239 240 234 231
282 283 285 286 287 290 291 293 294 295 294 295 295 292 290 287 279 275 271 268 261 256 252 246 243 240 236 231 220 214 202 206 215 220 224 226 231 235 239 241 239 235 231 227
280 283 284 286 289 290 292 294 297 298 299 298 295 294 292 287 280 276 269 259 255 251 246 242 239 236 230 225 214 208 197 203 207 214 225 229 229 230 233 235 235 234 232 230
280 283 287 289 291 292 295 298 298 300 299 298 296 294 290 284 277 273 266 259 252 246 243 240 238 237 235 229 215 210 204 209 211 217 219 219 221 226 231 235 236 235 231 230
283 287 291 292 293 295 297 298 300 300 298 296 294 292 288 282 274 266 259 252 244 242 241 240 239 236 237 232 229 219 215 217 220 220 224 228 234 235 235 235 236 240 239 233
287 291 293 293 293 297 299 299 300 298 295 293 291 288 284 277 270 264 254 248 239 235 239 243 242 236 241 235 231 226 227 228 230 229 228 232 238 241 240 241 241 241 242 237
290 293 293 292 294 299 299 300 299 296 292 289 288 285 279 274 266 260 252 248 235 231 238 240 239 241 242 239 235 233 231 234 236 237 240 243 243 247 245 247 245 244 241 241
291 293 295 296 300 300 300 299 297 292 287 288 287 282 277 274 266 262 255 256 244 235 232 236 237 242 245 243 239 240 236 238 241 246 243 244 246 247 248 247 246 244 241 250
291 294 299 299 300 301 300 296 291 286 284 286 285 283 277 274 267 263 260 253 253 243 241 240 240 246 250 246 248 245 246 251 250 252 254 250 250 253 257 254 248 245 249 247
293 297 302 302 302 303 298 292 288 284 287 287 285 284 279 273 263 259 260 260 256 253 250 245 244 239 245 249 250 252 254 255 257 258 258 257 258 257 254 248 247 242 241 243
295 301 306 307 307 305 298 292 288 284 286 288 284 286 280 271 267 263 261 256 252 251 250 250 247 246 244 245 249 252 253 254 255 253 252 254 251 248 250 250 245 240 239 240
299 306 311 310 308 304 297 291 290 287 284 284 281 282 281 276 268 262 260 259 257 256 254 252 250 247 248 249 248 249 251 259 263 263 262 260 257 255 249 244 245 241 240 240
301 308 309 309 306 302 294 287 288 287 283 281 279 278 278 273 269 265 261 261 261 259 257 258 258 257 257 257 258 258 260 258 260 263 262 261 260 258 254 245 240 239 241 243
302 307 306 306 303 298 291 285 284 284 285 282 280 278 274 271 267 267 268 266 266 266 265 265 265 264 264 264 265 267 266 264 263 262 262 261 260 259 257 253 252 248 246 248
306 307 303 302 300 294 288 281 278 279 281 279 276 274 270 270 269 269 269 271 270 269 270 270 269 268 267 268 268 268 267 266 266 266 266 265 263 260 257 255 251 247 243 240
307 305 301 299 297 293 287 279 275 275 278 277 273 273 270 270 272 271 271 273 273 272 272 270 267 266 267 265 263 261 261 263 264 264 264 265 266 266 264 260 257 255 252 248
305 302 300 297 295 292 287 279 275 274 278 279 275 273 273 272 272 275 273 275 277 278 277 275 271 269 266 264 264 265 265 264 263 263 261 262 262 262 262 260 257 254 250 249
302 304 302 295 295 292 285 276 275 275 278 281 279 277 277 276 277 278 278 276 275 275 275 276 275 274 273 269 267 267 268 268 268 269 269 267 267 266 264 262 258 256 251 248
310 308 302 297 295 293 285 281 280 278 280 281 281 279 280 279 280 281 281 279 277 273 270 268 268 269 271 272 272 270 269 269 269 269 269 268 267 268 264 262 258 256 252 247
312 307 305 302 297 292 287 282 278 277 280 282 283 281 281 281 281 282 281 281 278 276 274 271 270 268 266 266 269 271 271 269 269 268 268 267 267 266 265 263 260 255 251 248
310 311 316 308 302 301 299 296 291 290 290 290 289 289 289 289 289 290 289 286 281 278 276 274 273 272 271 271 270 269 269 269 267 267 266 265 264 263 261 260 257 255 253 250
320 323 319 316 312 307 302 296 293 290 289 289 288 287 287 285 284 283 282 283 282 280 277 274 272 271 271 271 269 269 268 268 268 267 266 264 263 262 261 258 257 256 254 251
325 321 316 312 307 306 306 302 299 296 295 295 294 292 291 290 290 290 289 287 285 281 278 276 276 274 272 271 269 267 266 266 266 266 266 264 262 261 260 257 255 255 253 251
319 317 318 318 316 312 309 307 306 304 304 301 298 297 296 296 297 294 292 289 286 283 282 279 276 274 271 270 270 268 266 264 263 263 264 264 262 261 259 257 253 253 251 250
318 318 316 314 313 313 311 310 308 308 306 304 304 304 304 303 301 299 297 294 290 287 284 281 277 274 271 269 267 264 262 263 262 261 262 261 261 260 258 256 253 250 250 249
314 313 313 313 313 313 314 313 312 310 308 308 309 310 308 305 303 300 296 295 293 291 288 284 280 277 274 272 269 266 263 261 260 260 259 261 261 260 258 256 253 251 249 248
Height
10368 10363 10355 10346 10338 10330 10325 10318 10312 10303 10296 10290 10284 10278 10271 10268 10265 10261 10258 10260 10259 10260 10262 10265 10268 10272 10277 10283 10290 10296 10305 10313 10321 10327 10334 10343 10350 10358 10366 10373 10378 10383 10388 10395
10349 10342 10333 10325 10318 10311 10303 10298 10293 10286 10277 10271 10265 10259 10254 10252 10248 10244 10244 10247 10247 10247 10250 10254 10257 10261 10267 10273 10281 10287 10295 10304 10311 10319 10327 10332 10336 10343 10349 10354 10361 10367 10371 10377
10329 10321 10315 10308 10301 10294 10285 10279 10275 10266 10259 10252 10248 10243 10238 10236 10234 10231 10231 10233 10235 10236 10239 10243 10248 10253 10259 10264 10272 10279 10285 10296 10304 10311 10316 10319 10325 10331 10336 10340 10347 10350 10354 10360
10310 10306 10300 10293 10286 10278 10271 10264 10258 10249 10242 10237 10231 10228 10225 10223 10221 10220 10220 10221 10223 10226 10229 10235 10239 10245 10251 10258 10264 10270 10276 10285 10292 10300 10305 10308 10313 10318 10323 10328 10332 10335 10340 10346
10296 10291 10287 10278 10270 10262 10256 10248 10242 10237 10230 10223 10218 10215 10214 10212 10210 10210 10210 10211 10214 10217 10221 10226 10229 10235 10240 10248 10255 10260 10263 10270 10275 10281 10286 10290 10295 10302 10308 10313 10316 10319 10325 10328
10283 10278 10271 10263 10255 10248 10242 10236 10230 10224 10217 10213 10208 10206 10205 10203 10202 10201 10202 10202 10205 10208 10213 10217 10221 10226 10229 10234 10237 10245 10251 10258 10262 10268 10276 10282 10286 10290 10294 10297 10303 10306 10312 10320
10270 10264 10258 10251 10241 10235 10230 10224 10218 10213 10207 10203 10200 10198 10196 10195 10194 10193 10194 10195 10197 10200 10205 10210 10214 10217 10219 10224 10228 10232 10237 10244 10250 10257 10262 10267 10270 10274 10278 10285 10291 10294 10298 10305
10258 10252 10246 10238 10231 10226 10218 10211 10207 10203 10199 10194 10191 10190 10189 10188 10186 10186 10186 10187 10190 10193 10196 10201 10204 10208 10211 10215 10219 10222 10226 10230 10235 10240 10245 10250 10254 10257 10265 10270 10276 10279 10283 10288
10245 10239 10232 10224 10219 10214 10207 10201 10197 10194 10190 10187 10184 10183 10181 10181 10180 10179 10180 10181 10182 10183 10187 10191 10195 10199 10201 10206 10210 10212 10215 10218 10223 10227 10230 10236 10238 10241 10246 10253 10260 10264 10269 10275
10232 10227 10221 10214 10208 10202 10196 10191 10188 10186 10183 10179 10177 10175 10175 10173 10172 10172 10173 10174 10175 10174 10177 10180 10184 10188 10191 10194 10198 10203 10204 10207 10211 10214 10217 10221 10224 10227 10232 10237 10245 10252 10258 10261
10221 10216 10211 10203 10197 10191 10186 10183 10180 10178 10175 10171 10169 10167 10166 10165 10165 10166 10165 10165 10166 10166 10168 10171 10173 10176 10180 10183 10184 10188 10190 10194 10197 10200 10201 10206 10211 10213 10219 10226 10230 10234 10241 10244
10210 10206 10200 10193 10187 10182 10177 10174 10172 10169 10166 10164 10162 10160 10159 10158 10158 10157 10157 10157 10157 10158 10160 10161 10163 10165 10166 10168 10170 10171 10175 10177 10180 10184 10186 10189 10194 10198 10201 10204 10209 10215 10218 10221
10199 10195 10190 10183 10177 10173 10168 10165 10162 10160 10158 10156 10155 10153 10152 10152 10151 10151 10149 10148 10148 10149 10150 10150 10152 10153 10155 10154 10156 10158 10160 10161 10164 10166 10171 10172 10174 10179 10182 10185 10186 10189 10191 10195
10189 10184 10180 10174 10167 10163 10159 10156 10153 10151 10150 10148 10147 10145 10144 10144 10143 10142 10141 10141 10140 10140 10140 10140 10140 10141 10143 10145 10145 10146 10146 10146 10149 10152 10154 10155 10156 10158 10162 10164 10164 10165 10166 10169
10180 10175 10169 10164 10158 10153 10150 10146 10144 10142 10140 10139 10138 10137 10136 10135 10134 10132 10132 10132 10132 10131 10130 10130 10130 10130 10130 10130 10131 10131 10132 10133 10133 10136 10138 10138 10140 10142 10143 10145 10146 10149 10149 10151
10169 10164 10158 10153 10149 10144 10140 10137 10135 10134 10132 10130 10130 10129 10128 10127 10125 10124 10123 10122 10122 10122 10121 10121 10121 10121 10120 10119 10119 10119 10120 10120 10121 10121 10122 10123 10125 10127 10128 10129 10130 10131 10133 10135
10158 10153 10147 10142 10138 10135 10130 10128 10126 10125 10124 10122 10121 10120 10119 10118 10117 10116 10115 10114 10112 10112 10112 10112 10112 10111 10111 10110 10110 10110 10110 10109 10109 10109 10110 10110 10110 10111 10112 10113 10113 10115 10117 10119
10147 10140 10136 10131 10126 10124 10120 10118 10117 10116 10114 10113 10112 10111 10110 10109 10108 10107 10106 10105 10103 10101 10101 10100 10100 10099 10099 10099 10098 10098 10098 10098 10098 10098 10098 10098 10098 10098 10098 10098 10099 10101 10102 10105
10135 10129 10124 10119 10115 10112 10110 10108 10107 10107 10106 10105 10104 10102 10101 10099 10098 10096 10095 10094 10093 10092 10090 10088 10086 10085 10085 10085 10084 10084 10084 10084 10083 10083 10083 10083 10084 10084 10084 10085 10086 10088 10089 10091
10122 10118 10113 10108 10104 10102 10100 10099 10098 10098 10097 10096 10094 10092 10090 10088 10087 10085 10083 10082 10080 10079 10078 10076 10075 10074 10072 10071 10070 10070 10070 10071 10071 10071 10071 10071 10071 10072 10073 10073 10074 10075 10077 10079
10111 10107 10103 10098 10096 10094 10092 10091 10090 10089 10088 10086 10084 10082 10079 10077 10074 10073 10071 10069 10067 10065 10065 10064 10063 10062 10061 10059 10058 10057 10057 10057 10058 10058 10059 10059 10060 10060 10061 10061 10062 10063 10064 10066
10102 10098 10095 10092 10090 10088 10086 10084 10083 10082 10079 10077 10075 10072 10069 10067 10064 10061 10058 10057 10055 10053 10052 10050 10048 10047 10046 10045 10045 10044 10044 10044 10044 10045 10046 10046 10047 10048 10049 10050 10050 10051 10052 10054
10094 10091 10088 10087 10084 10082 10080 10077 10075 10072 10070 10066 10063 10059 10056 10053 10050 10047 10044 10041 10038 10036 10035 10035 10034 10033 10031 10031 10030 10030 10030 10030 10030 10031 10032 10033 10034 10035 10036 10037 10037 10038 10040 10042
10088 10086 10083 10081 10078 10075 10072 10069 10066 10063 10060 10056 10052 10048 10044 10040 10035 10032 10029 10026 10024 10022 10020 10019 10017 10015 10015 10014 10014 10014 10015 10015 10015 10015 10017 10018 10019 10021 10022 10023 10025 10026 10028 10030
10083 10080 10077 10074 10071 10068 10065 10061 10058 10054 10050 10045 10040 10035 10030 10026 10022 10019 10015 10012 10009 10006 10004 10002 10001 10000 9999 9999 9998 9998 9998 9999 9999 10000 10001 10003 10004 10006 10008 10010 10012 10013 10015 10017
10078 10075 10071 10068 10065 10061 10058 10054 10049 10044 10040 10034 10028 10023 10018 10014 10009 10004 10000 9996 9993 9991 9989 9987 9985 9984 9984 9983 9983 9983 9984 9985 9985 9986 9987 9988 9990 9991 9993 9995 9997 9999 10002 10004
10072 10069 10065 10062 10058 10054 10050 10045 10040 10035 10029 10023 10018 10012 10007 10002 9997 9992 9988 9983 9980 9977 9975 9973 9971 9970 9970 9969 9969 9969 9969 9970 9970 9971 9972 9973 9975 9976 9977 9979 9982 9985 9987 9990